Home > Time Zones > World Clock > Weather > India > Theni > Past weeks

Flag for India Weather past 2 weeks in Theni, Tamil Nadu, India

Now
73 °F

Fog.


Feels Like: 74 °F
Forecast: 63 / 88 °F
Wind: No wind

Location: Coimbatore / Peelamedu

Current Time: Dec 22, 2014 at 1:26:26 AM

Latest Report: Dec 22, 2014 at 12:30 AM


Visibility: 2 mi

Pressure: 29.95 "Hg

Humidity: 78%

Dew point: 66 °F

Location of TheniLocation

Historic Weather in Theni — Graph

°F

Theni temperature yesterday

Maximum temperature yesterday: 88 °F (at 3:00 PM)
Minimum temperature yesterday: 70 °F (at 12:30 AM)
Average temperature yesterday: 77 °F

Past Weeks' High & Low Weather Summary

 TemperatureHumidityPressure
High88 °F (Dec 7, 3:00 PM)100% (Dec 7, 6:30 AM)30.09 "Hg (Dec 7, 6:30 AM)
Low68 °F (Dec 7, 5:30 AM)46% (Dec 7, 3:00 PM)29.83 "Hg (Dec 21, 4:00 PM)
Average77 °F76%29.97 "Hg
* Reported Dec 6 11:30 PM — Dec 21 11:30 PM, Theni, Weather by CustomWeather, © 2014

Note: Actual official high and low records may vary slightly from our data, if they occured in-between our weather recording intervals... More about our weather records

Advertising

Theni weather history for previous 24 hours

 ConditionsComfort  
Time TempWeatherWind HumidityBarometerVisibility
11:30 PM
Dec 21
73 °FFog.No wind78%29.95 "Hg2 mi
11:00 PM73 °FFog.No wind78%29.95 "Hg2 mi
10:30 PM73 °FFog.No wind78%29.95 "Hg2 mi
10:00 PM73 °FFog.No wind78%29.95 "Hg2 mi
9:30 PM75 °FPartly cloudy.No wind74%29.95 "Hg2 mi
9:00 PM77 °FPartly cloudy.No wind69%29.95 "Hg2 mi
8:30 PM77 °FPartly cloudy.No wind69%29.95 "Hg2 mi
8:00 PM79 °FPartly cloudy.2 mph61%29.92 "Hg2 mi
7:30 PM79 °FPartly cloudy.3 mph61%29.89 "Hg2 mi
7:00 PM81 °FPartly cloudy.6 mph62%29.89 "Hg2 mi
6:30 PM81 °FScattered clouds.5 mph58%29.86 "Hg2 mi
6:00 PM81 °FHaze.5 mph58%29.86 "Hg2 mi
5:30 PM82 °FHaze.7 mph55%29.86 "Hg3 mi
5:00 PM82 °FHaze.7 mph55%29.83 "Hg3 mi
4:30 PM84 °FHaze.5 mph51%29.83 "Hg3 mi
4:00 PM84 °FHaze.6 mph51%29.83 "Hg3 mi
3:00 PM88 °FHaze.5 mph46%29.86 "Hg3 mi
2:30 PM86 °FHaze.6 mph49%29.86 "Hg2 mi
2:00 PM84 °FHaze.5 mph51%29.89 "Hg2 mi
1:30 PM84 °FHaze.3 mph51%29.89 "Hg2 mi
1:00 PM84 °FHaze.3 mph51%29.92 "Hg2 mi
12:30 PM82 °FHaze.2 mph55%29.95 "Hg2 mi
12:00 PM82 °FHaze.2 mph55%29.95 "Hg2 mi
11:30 AM81 °FScattered clouds.2 mph58%29.98 "Hg2 mi
8:30 AM73 °FFog.No wind74%30.01 "Hg1 mi
8:00 AM72 °FFog.No wind83%29.98 "Hg1 mi
7:30 AM70 °FFog.No wind88%29.98 "Hg1 mi
7:00 AM70 °FFog.No wind88%29.98 "Hg1 mi
6:00 AM70 °FFog.No wind83%29.95 "Hg1 mi
5:30 AM70 °FFog.No wind83%29.95 "Hg1 mi
4:30 AM70 °FFog.3 mph88%29.92 "Hg1 mi
4:00 AM70 °FFog.2 mph88%29.92 "Hg1 mi
3:00 AM70 °FFog.3 mph88%29.92 "Hg2 mi
2:30 AM70 °FFog.No wind88%29.92 "Hg2 mi
Weather by CustomWeather, © 2014

See weather overviewHow to use our weather pages